MPEC 2006-H41 : 2006 HS30

The following Minor Planet Electronic Circular may be linked-to from your own Web pages, but must not otherwise be redistributed electronically.


Read MPEC 2006-H40 Read MPEC 2006-H42


M.P.E.C. 2006-H41                                Issued 2006 Apr. 26, 15:53 UT

     The Minor Planet Electronic Circulars contain information on unusual
         minor planets and routine data on comets.  They are published
   on behalf of Commission 20 of the International Astronomical Union by the
          Minor Planet Center, Smithsonian Astrophysical Observatory,
                          Cambridge, MA 02138, U.S.A.

                  Supported in part by the Brinson Foundation
                  Supported in part by the TABASGO Foundation
             Prepared using the Tamkin Foundation Computer Network

                              MPC@CFA.HARVARD.EDU
          URL http://cfa-www.harvard.edu/iau/mpc.html  ISSN 1523-6714

                                   2006 HS30

Observations:
     K06H30S* C2006 04 24.28412 14 06 51.94 +01 15 08.6          19.8 V EH041G96
     K06H30S  C2006 04 24.28497 14 06 54.82 +01 15 08.4          19.8 V EH041G96
     K06H30S  C2006 04 24.28582 14 06 57.70 +01 15 07.8          20.5 V EH041G96
     K06H30S  C2006 04 24.28667 14 07 00.48 +01 15 07.9          20.7 V EH041G96
     K06H30S  C2006 04 24.29927 14 07 41.48 +01 15 05.4          19.7 V EH041G96
     K06H30S  C2006 04 24.29958 14 07 42.52 +01 15 05.5          19.8 V EH041G96
     K06H30S  C2006 04 24.30028 14 07 44.83 +01 15 05.2          19.9 V EH041G96
     K06H30S  C2006 04 24.30059 14 07 45.80 +01 15 05.0          19.8 V EH041G96
     K06H30S  C2006 04 24.30131 14 07 48.03 +01 15 05.7          20.6 V EH041G96
     K06H30S  C2006 04 24.30163 14 07 49.22 +01 15 04.8          20.4 V EH041G96
     K06H30S  C2006 04 24.30233 14 07 51.52 +01 15 04.6          19.8 V EH041G96
     K06H30S  C2006 04 24.30264 14 07 52.46 +01 15 04.5          20.0 V EH041G96
     K06H30S  C2006 04 24.33365 14 09 34.34 +01 14 57.9          20.0 V EH041G96
     K06H30S  C2006 04 24.33395 14 09 35.49 +01 14 58.3          19.9 V EH041G96
     K06H30S  C2006 04 24.33425 14 09 36.46 +01 14 58.2          20.3 V EH041G96
     K06H30S  C2006 04 24.33456 14 09 37.36 +01 14 58.1          20.6 V EH041G96
     K06H30S  C2006 04 24.38741 14 12 33.87 +01 14 45.2          20.6 V EH041G96
     K06H30S  C2006 04 24.38772 14 12 34.92 +01 14 45.0          20.0 V EH041G96
     K06H30S  C2006 04 24.38802 14 12 35.92 +01 14 46.2          20.4 V EH041G96
     K06H30S  C2006 04 24.38833 14 12 36.93 +01 14 45.3          20.0 V EH041G96
     K06H30S  C2006 04 25.25411 15 09 53.02 +01 08 28.7          19.8 V EH041G96
     K06H30S  C2006 04 25.25505 15 09 56.80 +01 08 28.5          19.8 V EH041G96
     K06H30S  C2006 04 25.25598 15 10 00.66 +01 08 27.9          19.6 V EH041G96
     K06H30S  C2006 04 25.25693 15 10 04.72 +01 08 27.2          20.4 V EH041G96
     K06H30S  C2006 04 25.26721 15 10 46.88 +01 08 20.7          19.9 V EH041G96
     K06H30S  C2006 04 25.26751 15 10 48.21 +01 08 20.8          19.5 V EH041G96
     K06H30S  C2006 04 25.26782 15 10 49.51 +01 08 20.4          19.7 V EH041G96
     K06H30S  C2006 04 25.26812 15 10 50.66 +01 08 20.2          19.7 V EH041G96
     K06H30S  C2006 04 25.99162716 04 27.46 +00 55 33.4                 EH041J95
     K06H30S  C2006 04 25.99685916 04 50.46 +00 55 28.0                 EH041J95
     K06H30S  C2006 04 26.00202916 05 13.25 +00 55 22.6          19.7 R EH041J95
     K06H30S  C2006 04 26.38704 16 34 00.62 +00 51 00.4          19.9 R EH041651
     K06H30S  C2006 04 26.38840 16 34 06.26 +00 50 57.1          19.9 R EH041651
     K06H30S  C2006 04 26.44584 16 38 10.46 +00 49 42.1          19.9 V EH041G96
     K06H30S  C2006 04 26.44616 16 38 11.90 +00 49 41.3          20.2 V EH041G96
     K06H30S  C2006 04 26.44646 16 38 13.05 +00 49 41.3          19.9 V EH041G96
     K06H30S  C2006 04 26.44677 16 38 14.28 +00 49 40.7          19.6 V EH041G96

Observer details:
651 Grasslands Observatory, Tucson.  Observer J. E. McGaha.  0.62-m f/5.1
    reflector + CCD.
G96 Mt. Lemmon Survey.  Observer R. E. Hill.  Measurers E. C. Beshore,
    E. J. Christensen, G. J. Garradd, A. R. Gibbs, A. D. Grauer, R. E. Hill,
    R. A. Kowalski, S. M. Larson, R. H. McNaught.  1.5-m reflector + CCD.
J95 Great Shefford.  Observer P. Birtwhistle.  0.40-m f/6.0 Schmidt-Cassegrain
    + CCD.

Orbital elements:
2006 HS30                                                Earth MOID = 0.0103 AU
Epoch 2006 Mar. 6.0 TT = JDT 2453800.5                  MPC
M 343.35437              (2000.0)            P               Q
n   0.26980094     Peri.   20.30796     -0.65862209     +0.75222391
a   2.3719584      Node   208.50759     -0.69586993     -0.61868297
e   0.5745375      Incl.    2.32887     -0.28632497     -0.22669488
P   3.65           H   28.0           G   0.15           U   7
Residuals in seconds of arc
060424 G96  1.0-  0.2+    060424 G96  0.6+  0.0     060425 G96  1.5+  0.1+
060424 G96  0.7+  0.2+    060424 G96  0.3+  0.0     060425 G96  0.3+  0.1+
060424 G96 (2.3+  0.3-)   060424 G96  1.6-  0.1-    060425 J95  0.2+  0.2+
060424 G96 (2.5+  0.0 )   060424 G96  0.2+  0.2-    060425 J95  0.5-  0.0
060424 G96  0.3+  0.1-    060424 G96  0.2+  0.3-    060426 J95  0.0   0.2-
060424 G96  0.7+  0.1+    060424 G96  0.0   0.9+    060426 651 (2.3+  2.1+)
060424 G96  1.0+  0.1-    060424 G96  0.5-  0.1+    060426 651  0.1+  0.4+
060424 G96  0.4+  0.2-    060425 G96  0.2+  0.2-    060426 G96 (3.5+  0.3-)
060424 G96  1.5-  0.6+    060425 G96  1.1-  0.2+    060426 G96 (4.8+  0.8-)
060424 G96  0.6+  0.2-    060425 G96  0.6-  0.1+    060426 G96 (3.0+  0.4-)
060424 G96  0.8+  0.3-    060425 G96  1.7+  0.0     060426 G96  1.7+  0.6-
060424 G96  0.4-  0.3-    060425 G96  0.3-  0.0
060424 G96  1.8-  0.5-    060425 G96  1.1+  0.3+

Ephemeris:
2006 HS30                a,e,i = 2.37, 0.57, 2                   q = 1.0092
Date    TT    R. A. (2000) Decl.     Delta      r     Elong.  Phase     V
2006 04 25    14 51.78   +01 16.0    0.0152   1.020   162.2    17.5    19.9
2006 04 26    16 04.81   +01 03.2    0.0145   1.019   148.8    30.8    20.2
2006 04 27    17 17.76   +00 43.5    0.0152   1.017   132.9    46.5    20.7
2006 04 28    18 18.27   +00 23.2    0.0173   1.015   119.5    59.7    21.4
2006 04 29    19 03.28   +00 06.5    0.0203   1.014   109.6    69.3    22.0
2006 04 30    19 35.74   -00 06.0    0.0239   1.013   102.7    76.0    22.6
2006 05 01    19 59.38   -00 15.3    0.0278   1.012    97.9    80.5    23.1
2006 05 02    20 17.02   -00 22.4    0.0319   1.011    94.6    83.6    23.5
2006 05 03    20 30.53   -00 27.9    0.0362   1.010    92.3    85.6    23.8
2006 05 04    20 41.16   -00 32.2    0.0405   1.010    90.7    87.0    24.1
2006 05 05    20 49.71   -00 35.7    0.0450   1.009    89.6    87.9    24.4

Gareth V. Williams           (C) Copyright 2006 MPC           M.P.E.C. 2006-H41

Read MPEC 2006-H40 Read MPEC 2006-H42


Our Web policy. Index to the CBAT/MPC/ICQ pages.

MPC

Valid HTML 4.01!